Regional Weather Roundup
Issued by NWS

Home | Current Version | Previous Version | Graphics & Text | Print | Product List | Glossary On
Versions: 1 2 3 4 5 6 7 8 9 10 11 12 13 14 15 16 17 18 19 20 21 22 23 24 25 26 27 28 29 30 31 32 33 34 35 36 37 38 39 40 41 42 43 44 45 46 47 48 49 50
460
ASUS43 KLOT 232202
RWRIL

ILLINOIS REGIONAL WEATHER ROUNDUP
NATIONAL WEATHER SERVICE CHICAGO/ROMEOVILLE IL
500 PM CDT THU MAR 23 2017

NOTE: "FAIR" INDICATES FEW OR NO CLOUDS BELOW 12,000 FEET WITH NO
SIGNIFICANT WEATHER AND/OR OBSTRUCTIONS TO VISIBILITY.

* THESE STATIONS ARE NOT UNDER NWS QUALITY CONTROL. THEY ALSO MAY NOT
  REPORT WEATHER SUCH AS PRECIPITATION OR FOG.

ILZ001-002-007-009-015-016-024-232300-
NORTHWEST ILLINOIS

CITY           SKY/WX    TMP DP  RH WIND       PRES   REMARKS
MOLINE         CLOUDY    45  35  68 SE18G26   30.02F
STERLING*      CLOUDY    42  30  62 SE12G20   30.10F
SAVANNA*       CLOUDY    42  28  58 SE16      30.07F
$$

ILZ003-004-008-010-011-017-018-232300-
NORTH CENTRAL ILLINOIS

CITY           SKY/WX    TMP DP  RH WIND       PRES   REMARKS
ROCKFORD       CLOUDY    47  25  42 S15G23    30.12F
FREEPORT*      CLOUDY    42  25  50 SE15      30.11F
ROCHELLE*      CLOUDY    45  26  48 S20G25    30.11F
DE KALB*       CLOUDY    47  24  39 S22       30.12F
PERU*          LGT RAIN  42  32  67 S13       30.12F
$$

ILZ005-006-012>014-019>023-232300-
NORTHEAST ILLINOIS

CITY           SKY/WX    TMP DP  RH WIND       PRES   REMARKS
CHICAGO-OHARE  CLOUDY    49  26  41 S17G24    30.14F
CHICAGO-MIDWAY CLOUDY    50  26  39 S13G23    30.15F
AURORA         CLOUDY    50  24  36 S20G28    30.12F
LANSING*       CLOUDY    48  31  52 SE14      30.18F
JOLIET*        CLOUDY    51  26  37 S14G20    30.14F
WAUKEGAN       CLOUDY    41  28  60 S9        30.14F
DUPAGE AIRPORT CLOUDY    49  26  41 S20G25    30.11F
KANKAKEE*      CLOUDY    50  25  37 SE10      30.18S
WHEELING       CLOUDY    47  26  44 SE13      30.15F
MORRIS*        CLOUDY    49  26  40 S12G22    30.12F
ROMEOVILLE*    CLOUDY    49  31  49 S17G24    30.14F
NORTHERLY ISL    N/A     47  27  46 SE7         N/A
$$

LMZ740>746-232300-
SOUTHERN LAKE MICHIGAN

STATION/POSITION SKY/WX   TEMP    WIND        PRES    VSBY  WAVE
                          AIR SEA DIR/SP/G                  HT/PER
                          (F)     (DEG/KT/KT) (MB)    (MI)  (FT/S)
HARRISON CRIB              44     160/ 17/ 18   N/A
BURNHAM HARBOR             45     130/ 11/ 16   N/A
CALUMET HARBOR             47     150/ 12/ 18 1021.3F
BURNS HARBOR               48     170/ 11/ 18 1022.7F
MICHIGAN CITY              47     150/ 12/ 18   N/A
$$

ILZ025>027-034>036-040-047-049-050-058-095>099-232300-
WEST-CENTRAL ILLINOIS

CITY           SKY/WX    TMP DP  RH WIND       PRES   REMARKS
QUINCY         SUNNY     55  40  56 SE14G23   29.98F
GALESBURG*     PTSUNNY   44  39  80 SE15      30.02F
MACOMB*        MOSUNNY   46  41  83 SE20      30.04F
JACKSONVILLE*  SUNNY     49  40  72 SE18      30.06F
PITTSFIELD*    SUNNY     54  41  61 SE17      30.03F
$$

ILZ028>032-037-038-041>044-048-051>054-059>061-232300-
CENTRAL ILLINOIS

CITY           SKY/WX    TMP DP  RH WIND       PRES   REMARKS
PONTIAC        CLOUDY    48  29  48 SE15      30.14F
BLOOMINGTON    LGT RAIN  44  32  62 S18       30.13F
DECATUR        CLOUDY    44  37  76 SE15      30.14F
PEORIA         CLOUDY    44  38  79 SE10      30.10F
LACON*         CLOUDY    45  32  60 SE13      30.10F
LINCOLN*       CLOUDY    46  40  81 SE14G21   30.11F
SPRINGFIELD    CLOUDY    48  40  73 SE20G26   30.10F
TAYLORVILLE    CLOUDY    45  39  81 SE18      30.12F
$$

ILZ033-039-045-046-055>057-062-063-232300-
EAST-CENTRAL ILLINOIS

CITY           SKY/WX    TMP DP  RH WIND       PRES   REMARKS
CHAMPAIGN      CLOUDY    49  26  41 SE16      30.16F
RANTOUL*       RAIN      50  32  50 SE12      30.17F
MATTOON        CLOUDY    46  33  60 SE13      30.16F
PARIS*         CLOUDY    50  31  47 SE15      30.20F
$$

ILZ079-100>102-232300-
SOUTHWEST ILLINOIS

CITY           SKY/WX    TMP DP  RH WIND       PRES   REMARKS
ALTON          MOSUNNY   54  45  71 SE17      30.09F
CAHOKIA*       MOSUNNY   59  43  55 SE15      30.07F
SPARTA*        SUNNY     59  45  60 SE12      30.12F
$$

ILZ064>066-069>071-074>076-080>082-084>086-088>090-092>094-232300-
SOUTH-CENTRAL ILLINOIS

CITY           SKY/WX    TMP DP  RH WIND       PRES   REMARKS
CARBONDALE     MOSUNNY   62  44  51 SE13      30.13F
CAIRO*         SUNNY     66  41  41 SE13      30.15F
EFFINGHAM*     PTSUNNY   49  40  70 SE15      30.18F
MARION         SUNNY     63  43  48 SE9       30.17F
MT. VERNON     SUNNY     56  42  59 SE12      30.16F
CENTRALIA*     MOSUNNY   55  43  64 SE12      30.13F
SALEM*         SUNNY     54  41  61 S10G16    30.15F
METROPOLIS*    SUNNY     56  44  61 E7        30.19F
$$

ILZ067-068-072-073-078-083-087-091-232300-
SOUTHEAST ILLINOIS

CITY           SKY/WX    TMP DP  RH WIND       PRES   REMARKS
LAWRENCEVILLE  CLOUDY    50  34  54 SE10      30.23F
FLORA*         CLOUDY    52  42  68 SE12      30.19F
FAIRFIELD*     SUNNY     53  42  67 SE8       30.18F
HARRISBURG*    SUNNY     54  45  69 SE8       30.19F
ROBINSON*      CLOUDY    49  32  51 SE14      30.21F
CARMI*         MOSUNNY   52  42  68 SE13      30.20F
$$

ABBREVIATIONS USED IN REMARKS
   TC - TEMPERATURE IN CELSIUS
  WCI - WIND CHILL INDEX
   HX - HEAT INDEX
  VSB - VISIBILITY
$$





USA.gov is the U.S. government's official web portal to all federal, state and local government web resources and services.